Погода в Пьятра-Нямце

Румыния     46°56′05″N   26°22′45″E
темп.,
°C
ветер,
м/с
пор.,
м/с
влажн.,
%
обл.,
%
осадки,
мм/ч
давл.,
гПа
погр.,
м
14 июня, пн
пн1400:00+10сз5117511 0.0 1015514
03:00+8зсз22848 0.0 101418
06:00+10зсз2273100 0.0 101354
09:00+12ссз697897 0.1 1014810
12:00+14ссз787483 1.4 10141262
15:00+12сз51090100 2.8 1015680
18:00+12сз3787100 0.1 1015631
21:00+11зсз3689100 0.2 1015264
15 июня, вт
вт1500:00+11зсз2388100 0.1 101684
03:00+11сз3891100 0.3 1015314
06:00+12сз3994100 0.8 1015359
09:00+14ссз5119499 1.3 1016578
12:00+16ссз7108493 0.0 1015741
15:00+18ссз7108181 0.4 1015840
18:00+19ссз7117894 0.1 10131057
21:00+16ссз614855 0.4 1013557
16 июня, ср
ср1600:00+15сз5138777 0.7 1014473
03:00+14сз614908 0.9 1013493
06:00+15ссз6148570 0.0 1014653
09:00+16ссз71380100 0.1 1014778
12:00+20с8106920 0.2 10151191
15:00+20с7107578 1.6 10151119
18:00+17с3990100 4.2 1015410
21:00+16ссз4119255 8.9 1015360
17 июня, чт
чт1700:00+15сз489386 1.5 1016176
03:00+15сз51291100 3.1 1016382
06:00+15ссз61194100 3.9 1017389
09:00+17ссз6109098 6.6 1018707
12:00+19с71087100 0.4 1019812
15:00+21с6884100 2.8 1018920
18:00+18с61093100 7.3 1018348
21:00+18с51094100 13.9 1018293
18 июня, пт
пт1800:00+17ссв51097100 2.2 1019469
03:00+17ссв4999100 3.1 1019460
06:00+17ссв51099100 1.4 1019547
09:00+17св4798100 2.3 1020511
12:00+19св5890100 2.7 1020898
15:00+18св599576 4.8 1020571
18:00+19всв599386 3.3 1020481
21:00+16св369794 7.8 1021176